SCP
0 0 0 0 0 0 0 0 0 0 0 0 0 0 0 0 0 -0 0 0 0 -0 -0 0 0 0 0 0 0 0 0 -0 0 0 0 0 0 0 0 0 0 0 0 0 0
0 0 0 0 0 0 0 0 0 0 0 0 0 0 0 0 0 0 0 0 -0 0 0 0 0 0 0 0 0 0 0 0 0 0 0 0 0 0 0 0 0 0 0 0 0
0 0 0 0 0 0 0 0 0 0 0 0 0 0 0 0 0 0 -0 -0 -0 -0 -0 0 0 0 0 0 0 0 -0 0 0 0 0 0 0 0 0 0 0 0 0 0 0
0 0 0 0 0 0 0 0 0 0 0 0 0 0 0 0 0 0 -0 -0 -0 -0 0 0 0 0 0 0 0 0 0 0 0 0 0 0 0 0 0 0 0 0 0 0 0
0 0 0 0 0 0 0 0 0 0 0 0 0 0 -0 0 0 0 -0 -0 0 0 0 0 0 0 0 0 0 0 0 0 0 0 0 0 0 0 0 0 0 0 0 0 0
0 0 0 0 0 0 0 0 0 0 0 0 0 0 -0 0 0 0 0 0 -0 0 0 0 0 0 0 0 0 0 0 0 0 0 0 0 0 0 0 0 0 0 0 0 0
0 0 0 0 0 0 0 0 0 0 0 0 0 0 0 0 0 0 0 0 0 0 0 0 0 0 0 0 0 0 0 0 0 0 0 0 0 0 0 0 0 0 0 0 0
0 0 0 0 0 0 0 0 0 0 0 0 0 0 0 0 0 0 0 0 0 0 0 0 0 0 0 0 0 0 0 0 0 0 0 0 0 0 0 0 0 0 0 0 0
-0 0 0 0 0 0 0 0 0 0 0 0 0 0 0 0 0 0 0 0 0 0 0 0 0 0 0 0 0 0 0 0 0 0 0 0 0 0 0 0 0 0 0 0 0
-0 -0 -0 -0 0 0 0 0 0 0 0 0 0 0 0 0 0 0 0 0 0 0 0 0 0 0 0 0 0 0 0 0 0 -0 0 0 0 0 0 0 0 0 0 0 0
0 0 0 0 0 0 0 0 0 0 0 0 0 0 0 0 0 0 0 0 0 0 0 0 0 0 0 0 0 0 0 0 -0 -0 0 0 0 0 0 0 0 0 0 0 0
0 0 0 0 0 0 0 0 0 0 0 0 0 0 0 0 0 0 0 0 0 0 0 0 0 0 0 0 0 0 0 0 0 -0 0 0 0 0 0 0 0 0 0 0 0
0 0 0 0 0 0 0 0 0 0 0 0 0 0 0 0 0 0 0 0 0 0 0 0 0 0 0 0 0 0 0 0 0 0 0 0 0 0 0 0 0 0 0 0 0
0 0 0 0 0 0 0 0 0 0 0 -0 0 0 0 0 0 0 0 0 0 0 0 0 0 0 0 0 0 0 0 0 0 0 0 0 0 0 0 0 0 0 0 0 0
0 0 0 0 0 0 0 0 0 0 0 0 0 0 0 0 0 0 0 0 0 0 0 0 0 0 0 0 0 0 0 0 0 0 0 0 0 0 0 0 0 0 0 0 0
0 0 0 0 0 0 0 0 0 0 0 0 0 0 0 -0 0 0 0 0 0 0 0 0 0 0 0 0 0 0 0 0 0 0 0 0 0 0 0 0 0 0 0 0 0
0 0 0 0 0 0 0 0 0 0 0 0 0 0 0 0 0 0 0 0 0 0 0 0 0 0 0 0 0 0 0 0 0 0 0 0 0 0 0 0 0 0 0 0 0
0 0 0 0 0 0 0 0 0 0 0 0 0 0 0 0 0 0 0 0 0 0 0 0 0 0 0 0 0 0 0 0 0 0 0 0 0 0 0 0 0 0 0 0 0
0 0 0 0 0 0 0 0 0 0 0 0 0 0 0 0 0 0 0 0 0 0 0 0 0 0 0 0 0 0 0 0 0 0 0 0 0 0 0 0 0 0 0 0 0
0 0 0 0 0 0 0 0 0 0 0 0 0 0 0 0 0 0 0 0 0 0 0 0 0 0 0 0 0 0 0 0 0 0 0 0 0 0 0 0 0 0 0 0 0
0 0 0 0 0 0 0 0 0 0 0 0 0 0 0 0 0 0 0 0 0 -0 -0 -0 0 0 0 0 0 0 0 0 0 0 0 0 0 0 0 0 0 0 0 0 0
0 0 0 0 0 0 0 0 0 0 0 0 0 0 0 0 0 0 0 0 0 0 0 0 0 0 0 0 0 0 0 0 0 0 0 0 0 0 0 0 0 0 0 0 0
0 0 0 0 0 0 0 0 0 0 0 0 0 0 0 0 0 0 0 0 0 0 0 0 0 0 0 0 0 0 0 0 0 0 0 0 0 0 0 0 0 0 0 0 0
0 0 0 0 0 0 0 0 0 0 0 0 0 0 0 0 0 0 0 0 0 0 -0 0 -0 0 0 0 0 0 0 0 0 0 0 0 0 0 0 0 0 0 0 0 0
0 0 0 0 0 0 0 0 0 0 0 0 0 0 0 0 0 0 0 0 0 0 0 0 -0 0 0 0 0 0 0 0 0 0 0 0 0 0 0 0 0 0 0 0 0
0 0 0 0 0 0 0 0 0 0 0 0 0 0 0 0 0 0 0 0 0 0 0 0 0 0 0 0 0 -0 -0 -0 0 0 0 0 0 0 0 0 0 0 0 0 0
0 0 0 0 0 0 0 0 0 0 0 0 0 0 0 0 0 0 0 0 0 0 0 0 0 -0 0 0 0 0 -0 0 -0 -0 -0 -0 0 0 0 0 0 0 0 0 0
Wind_Speed_500mb
19 19 20 20 23 25 24 25 27 29 31 32 35 35 40 46 41 41 21 14 20 30 26 24 16 29 23 38 37 41 3 11 11 20 18 35 16 42 32 36 25 14 35 49 61
23 22 22 23 23 25 27 27 30 31 34 35 37 40 39 47 48 35 11 10 17 36 32 26 27 28 32 33 31 8 7 12 9 16 7 18 41 27 17 26 27 52 57 69 56
25 25 26 26 27 27 28 29 32 34 37 41 41 42 40 40 36 7 8 20 34 39 32 22 21 31 39 45 43 18 16 11 29 17 13 24 25 23 47 8 26 59 69 65 57
28 28 28 29 30 31 32 33 35 39 41 44 46 47 43 29 8 15 29 32 35 34 23 18 23 31 14 12 45 11 37 21 30 8 14 2 28 16 15 20 47 54 66 66 61
33 33 31 33 33 35 35 37 40 40 44 47 48 50 48 18 35 25 31 40 30 16 23 24 27 31 12 20 32 9 14 16 38 3 8 19 9 26 42 67 53 56 57 60 58
37 33 34 36 37 36 39 40 43 45 47 48 49 48 40 15 22 20 27 39 29 23 24 25 31 18 19 21 13 33 33 26 28 20 12 7 20 23 40 65 66 62 53 50 50
33 35 36 38 41 40 41 41 41 42 45 45 46 46 47 53 35 32 29 34 32 26 25 23 23 8 22 15 23 31 17 15 22 28 10 23 11 20 69 67 63 57 54 51 47
24 29 25 26 26 35 38 40 45 45 47 42 43 42 36 45 35 40 37 30 25 25 27 23 23 21 21 23 21 14 13 10 17 23 36 22 21 19 71 71 65 62 55 47 44
43 39 40 39 47 46 39 40 49 47 46 44 43 14 37 15 22 12 8 21 15 8 20 16 19 17 20 6 10 10 12 18 23 35 19 22 10 19 72 64 58 65 60 57 48
21 24 30 39 41 42 46 44 36 48 45 26 31 11 33 27 20 11 10 15 9 15 16 21 13 6 6 6 13 11 15 19 28 27 27 29 21 27 68 63 61 70 67 63 61
24 23 27 32 33 37 46 40 21 13 7 20 14 23 41 26 19 20 22 20 17 20 11 28 7 13 21 23 25 24 30 28 24 28 19 28 32 34 57 53 49 61 74 73 69
21 23 22 24 28 29 31 24 18 24 26 39 56 59 66 65 55 56 29 27 23 15 19 12 24 25 27 23 20 19 24 31 17 21 19 14 15 35 40 54 74 76 70 78 76
20 20 21 21 20 22 23 26 28 20 17 38 62 58 88 61 72 72 55 49 29 20 24 24 23 22 27 21 14 14 15 16 15 28 30 17 12 15 39 53 54 61 77 79 88
29 23 20 14 24 14 22 34 18 5 8 14 17 23 52 54 27 68 77 60 32 36 34 27 37 37 36 27 16 19 15 19 15 13 17 9 22 17 12 43 42 59 71 78 89
28 26 21 21 14 12 13 5 3 6 12 17 13 6 5 38 13 8 55 62 47 43 26 27 17 23 30 33 32 29 17 22 8 12 12 15 11 12 26 32 37 45 65 83 95
28 27 27 17 27 21 12 11 9 2 16 11 15 6 7 39 26 18 5 47 55 30 39 44 58 36 30 33 24 12 15 8 8 4 24 9 11 14 25 26 48 55 57 80 92
31 30 28 32 21 25 16 3 2 9 14 13 6 27 34 10 11 12 18 11 11 10 24 36 45 46 46 45 30 11 6 5 7 5 17 25 18 31 14 23 26 47 61 78 97
23 31 32 40 31 17 19 4 18 16 30 38 36 38 12 23 28 19 10 18 15 23 20 22 28 38 29 50 32 32 15 12 14 11 9 19 14 16 9 15 42 79 83 88 96
22 23 35 38 36 24 10 14 15 18 14 16 33 24 20 12 21 20 10 12 16 15 12 18 41 31 26 38 38 18 36 18 27 28 6 8 12 11 8 10 18 33 62 79 93
17 16 35 24 37 30 5 30 16 23 30 29 20 15 31 29 23 21 9 17 19 28 28 13 28 19 39 37 29 40 25 15 9 24 26 23 10 14 5 9 7 10 41 52 71
14 9 6 27 34 20 19 17 19 40 41 14 19 26 34 28 22 24 11 21 9 16 29 18 10 10 17 13 10 9 27 10 6 12 24 9 12 12 9 15 17 14 43 60 69
10 3 12 41 16 11 20 13 16 39 41 24 23 27 33 31 29 19 21 18 34 17 17 2 8 11 18 28 34 10 8 6 8 14 5 17 29 9 12 18 22 26 55 67 78
9 10 12 31 9 13 9 23 32 36 29 15 20 24 29 35 31 26 31 34 33 9 8 7 3 9 15 5 8 10 14 23 11 4 23 23 21 4 14 13 15 30 48 63 69
6 4 4 13 12 3 5 15 13 21 28 36 31 36 34 35 30 25 36 18 23 32 18 6 8 13 9 23 26 16 34 37 19 5 9 15 26 32 28 28 9 33 57 73 73
9 8 5 6 10 10 11 8 17 16 14 8 9 17 23 16 25 31 31 37 32 35 15 8 12 22 29 37 34 34 32 32 15 23 11 18 18 45 22 21 33 39 44 56 66
8 6 5 22 25 13 20 16 32 36 28 34 26 29 25 22 20 37 27 21 19 12 9 7 7 6 12 33 46 37 28 29 32 35 44 35 39 42 49 53 43 41 51 50 60
22 25 14 13 7 6 18 18 19 28 39 42 33 24 27 27 35 34 35 46 30 24 34 16 7 7 29 32 24 20 28 37 44 43 39 35 40 41 31 29 43 41 52 57 61
Wind_Direction_500mb
266 274 282 285 293 298 304 309 314 317 321 323 326 330 333 328 324 320 303 270 308 328 317 308 320 344 303 279 275 280 353 276 282 288 203 144 109 82 102 98 73 77 147 162 151
268 272 275 280 285 291 298 305 310 315 317 321 325 327 332 332 329 324 274 249 307 329 318 311 314 334 317 298 293 180 199 250 269 308 10 111 110 116 98 86 82 94 119 141 143
272 272 275 280 285 289 294 300 305 309 314 319 323 324 329 337 327 14 6 315 316 324 323 304 314 303 287 290 282 250 239 256 293 340 347 147 131 128 128 131 168 146 142 145 151
274 273 277 280 285 291 294 298 303 309 312 318 320 323 325 339 321 308 313 309 308 316 310 331 313 294 287 269 283 269 258 264 288 24 360 297 149 70 116 180 163 153 148 148 161
272 276 277 281 283 288 292 296 300 305 310 313 319 323 328 321 284 320 317 317 321 323 311 305 301 297 289 309 327 301 255 285 297 188 300 329 48 115 108 134 143 144 155 163 160
268 276 282 287 287 289 295 299 302 305 307 310 314 318 321 278 297 278 313 307 316 301 281 290 311 306 308 287 293 297 301 310 309 286 190 272 136 105 133 137 141 154 159 165 167
251 257 267 279 286 295 298 303 309 311 312 311 308 315 305 276 297 273 270 283 277 277 278 277 321 322 315 316 313 307 316 293 287 282 233 219 269 143 148 146 147 156 164 165 170
295 298 305 294 298 301 306 304 305 309 309 310 313 308 280 295 289 271 275 283 264 254 261 274 297 278 279 271 308 307 311 282 266 268 262 190 235 142 158 154 158 164 168 173 180
300 294 297 288 289 296 295 302 304 304 303 302 296 311 281 285 270 309 265 274 275 246 260 255 279 258 278 257 287 251 245 257 265 238 231 182 219 163 169 163 164 167 171 174 174
293 283 284 293 292 292 291 289 300 297 294 290 267 277 265 280 285 257 228 244 273 276 251 233 239 228 303 154 232 242 238 252 251 258 227 222 205 151 172 171 170 173 174 178 178
270 267 265 272 278 284 290 300 303 303 268 222 263 229 283 255 311 282 235 250 256 260 259 251 196 221 230 221 231 246 266 269 268 282 306 245 198 166 176 173 172 175 180 183 184
272 271 274 274 279 287 285 277 255 321 292 268 262 259 258 264 283 266 250 256 234 239 256 263 246 234 243 247 252 257 255 267 276 296 303 284 192 184 180 187 184 185 182 183 181
282 289 279 279 294 303 298 303 283 304 280 280 256 248 248 236 241 251 251 253 250 247 252 256 258 272 245 247 253 281 276 276 280 297 290 272 254 227 197 195 194 190 188 184 182
265 268 270 279 311 337 298 336 309 289 279 265 231 249 236 229 259 246 246 239 249 247 255 247 257 261 269 265 250 247 260 289 281 290 271 182 246 249 211 197 197 193 188 182 183
248 251 249 248 225 207 297 248 185 264 303 269 181 138 158 172 234 348 240 229 232 242 242 240 239 253 253 263 271 270 226 254 264 285 323 284 270 233 232 201 197 200 189 184 182
248 238 230 233 234 261 286 271 292 23 249 267 148 154 145 201 217 253 130 217 232 251 242 254 261 267 252 260 255 250 256 255 254 252 260 196 240 239 232 238 206 199 188 179 177
241 241 226 210 206 240 256 229 271 204 278 233 306 17 345 285 303 250 251 221 185 214 256 264 259 252 253 269 272 273 175 262 297 232 250 196 227 243 259 234 219 190 186 174 174
261 244 229 219 216 218 216 98 222 248 237 296 316 327 325 307 320 301 328 269 251 255 250 260 274 230 218 227 239 225 210 178 205 224 275 216 238 255 288 266 207 188 178 169 170
264 254 247 224 213 229 179 204 212 196 258 313 321 312 301 338 329 323 264 276 272 8 331 296 262 268 255 234 227 214 224 213 239 256 306 230 296 283 120 45 50 163 161 166 171
257 263 260 228 211 212 196 236 242 235 290 314 295 288 301 314 318 327 355 13 349 28 16 328 303 273 279 297 279 218 201 226 218 228 239 252 248 245 260 185 101 57 169 162 163
235 254 250 189 196 193 218 231 251 260 276 290 288 300 298 302 308 308 285 319 22 353 8 26 303 321 333 255 251 308 205 210 173 200 231 248 255 221 183 178 149 128 149 155 160
221 235 200 185 173 202 229 224 234 267 285 295 293 271 273 282 288 280 278 282 302 321 318 3 278 276 250 286 298 345 318 250 188 247 221 223 238 113 124 145 158 162 165 171 173
231 252 239 195 210 222 266 258 263 267 265 277 275 281 283 286 283 266 272 283 276 20 318 16 269 306 307 284 307 339 46 15 342 38 236 240 261 93 88 96 195 183 171 175 177
260 255 240 212 237 121 231 260 277 288 280 262 269 274 278 283 276 278 278 280 304 305 232 192 199 239 269 295 296 295 315 323 314 266 309 254 295 288 299 311 235 204 187 184 177
230 230 223 176 245 213 193 276 276 277 250 306 293 288 301 303 315 283 282 300 289 295 172 218 239 230 247 253 261 259 264 296 292 286 237 276 263 278 289 294 284 225 183 173 171
220 208 259 285 284 212 220 239 249 266 274 280 269 264 264 255 248 288 294 289 287 293 170 246 274 221 258 269 272 270 258 222 250 269 272 261 262 256 256 262 281 187 176 179 172
239 248 310 269 297 279 251 256 252 258 268 274 283 271 267 262 262 271 275 271 252 263 270 181 233 232 270 272 299 264 236 234 238 243 244 252 249 265 251 245 261 241 192 192 187
Wind_Speed_850mb
19 19 20 20 23 25 24 25 27 29 31 32 35 35 40 46 41 41 21 14 20 30 26 24 16 29 23 38 37 41 3 11 11 20 18 35 16 42 32 36 25 14 35 49 61
23 22 22 23 23 25 27 27 30 31 34 35 37 40 39 47 48 35 11 10 17 36 32 26 27 28 32 33 31 8 7 12 9 16 7 18 41 27 17 26 27 52 57 69 56
25 25 26 26 27 27 28 29 32 34 37 41 41 42 40 40 36 7 8 20 34 39 32 22 21 31 39 45 43 18 16 11 29 17 13 24 25 23 47 8 26 59 69 65 57
28 28 28 29 30 31 32 33 35 39 41 44 46 47 43 29 8 15 29 32 35 34 23 18 23 31 14 12 45 11 37 21 30 8 14 2 28 16 15 20 47 54 66 66 61
33 33 31 33 33 35 35 37 40 40 44 47 48 50 48 18 35 25 31 40 30 16 23 24 27 31 12 20 32 9 14 16 38 3 8 19 9 26 42 67 53 56 57 60 58
37 33 34 36 37 36 39 40 43 45 47 48 49 48 40 15 22 20 27 39 29 23 24 25 31 18 19 21 13 33 33 26 28 20 12 7 20 23 40 65 66 62 53 50 50
33 35 36 38 41 40 41 41 41 42 45 45 46 46 47 53 35 32 29 34 32 26 25 23 23 8 22 15 23 31 17 15 22 28 10 23 11 20 69 67 63 57 54 51 47
24 29 25 26 26 35 38 40 45 45 47 42 43 42 36 45 35 40 37 30 25 25 27 23 23 21 21 23 21 14 13 10 17 23 36 22 21 19 71 71 65 62 55 47 44
43 39 40 39 47 46 39 40 49 47 46 44 43 14 37 15 22 12 8 21 15 8 20 16 19 17 20 6 10 10 12 18 23 35 19 22 10 19 72 64 58 65 60 57 48
21 24 30 39 41 42 46 44 36 48 45 26 31 11 33 27 20 11 10 15 9 15 16 21 13 6 6 6 13 11 15 19 28 27 27 29 21 27 68 63 61 70 67 63 61
24 23 27 32 33 37 46 40 21 13 7 20 14 23 41 26 19 20 22 20 17 20 11 28 7 13 21 23 25 24 30 28 24 28 19 28 32 34 57 53 49 61 74 73 69
21 23 22 24 28 29 31 24 18 24 26 39 56 59 66 65 55 56 29 27 23 15 19 12 24 25 27 23 20 19 24 31 17 21 19 14 15 35 40 54 74 76 70 78 76
20 20 21 21 20 22 23 26 28 20 17 38 62 58 88 61 72 72 55 49 29 20 24 24 23 22 27 21 14 14 15 16 15 28 30 17 12 15 39 53 54 61 77 79 88
29 23 20 14 24 14 22 34 18 5 8 14 17 23 52 54 27 68 77 60 32 36 34 27 37 37 36 27 16 19 15 19 15 13 17 9 22 17 12 43 42 59 71 78 89
28 26 21 21 14 12 13 5 3 6 12 17 13 6 5 38 13 8 55 62 47 43 26 27 17 23 30 33 32 29 17 22 8 12 12 15 11 12 26 32 37 45 65 83 95
28 27 27 17 27 21 12 11 9 2 16 11 15 6 7 39 26 18 5 47 55 30 39 44 58 36 30 33 24 12 15 8 8 4 24 9 11 14 25 26 48 55 57 80 92
31 30 28 32 21 25 16 3 2 9 14 13 6 27 34 10 11 12 18 11 11 10 24 36 45 46 46 45 30 11 6 5 7 5 17 25 18 31 14 23 26 47 61 78 97
23 31 32 40 31 17 19 4 18 16 30 38 36 38 12 23 28 19 10 18 15 23 20 22 28 38 29 50 32 32 15 12 14 11 9 19 14 16 9 15 42 79 83 88 96
22 23 35 38 36 24 10 14 15 18 14 16 33 24 20 12 21 20 10 12 16 15 12 18 41 31 26 38 38 18 36 18 27 28 6 8 12 11 8 10 18 33 62 79 93
17 16 35 24 37 30 5 30 16 23 30 29 20 15 31 29 23 21 9 17 19 28 28 13 28 19 39 37 29 40 25 15 9 24 26 23 10 14 5 9 7 10 41 52 71
14 9 6 27 34 20 19 17 19 40 41 14 19 26 34 28 22 24 11 21 9 16 29 18 10 10 17 13 10 9 27 10 6 12 24 9 12 12 9 15 17 14 43 60 69
10 3 12 41 16 11 20 13 16 39 41 24 23 27 33 31 29 19 21 18 34 17 17 2 8 11 18 28 34 10 8 6 8 14 5 17 29 9 12 18 22 26 55 67 78
9 10 12 31 9 13 9 23 32 36 29 15 20 24 29 35 31 26 31 34 33 9 8 7 3 9 15 5 8 10 14 23 11 4 23 23 21 4 14 13 15 30 48 63 69
6 4 4 13 12 3 5 15 13 21 28 36 31 36 34 35 30 25 36 18 23 32 18 6 8 13 9 23 26 16 34 37 19 5 9 15 26 32 28 28 9 33 57 73 73
9 8 5 6 10 10 11 8 17 16 14 8 9 17 23 16 25 31 31 37 32 35 15 8 12 22 29 37 34 34 32 32 15 23 11 18 18 45 22 21 33 39 44 56 66
8 6 5 22 25 13 20 16 32 36 28 34 26 29 25 22 20 37 27 21 19 12 9 7 7 6 12 33 46 37 28 29 32 35 44 35 39 42 49 53 43 41 51 50 60
22 25 14 13 7 6 18 18 19 28 39 42 33 24 27 27 35 34 35 46 30 24 34 16 7 7 29 32 24 20 28 37 44 43 39 35 40 41 31 29 43 41 52 57 61
Wind_Direction_850mb
266 274 282 285 293 298 304 309 314 317 321 323 326 330 333 328 324 320 303 270 308 328 317 308 320 344 303 279 275 280 353 276 282 288 203 144 109 82 102 98 73 77 147 162 151
268 272 275 280 285 291 298 305 310 315 317 321 325 327 332 332 329 324 274 249 307 329 318 311 314 334 317 298 293 180 199 250 269 308 10 111 110 116 98 86 82 94 119 141 143
272 272 275 280 285 289 294 300 305 309 314 319 323 324 329 337 327 14 6 315 316 324 323 304 314 303 287 290 282 250 239 256 293 340 347 147 131 128 128 131 168 146 142 145 151
274 273 277 280 285 291 294 298 303 309 312 318 320 323 325 339 321 308 313 309 308 316 310 331 313 294 287 269 283 269 258 264 288 24 360 297 149 70 116 180 163 153 148 148 161
272 276 277 281 283 288 292 296 300 305 310 313 319 323 328 321 284 320 317 317 321 323 311 305 301 297 289 309 327 301 255 285 297 188 300 329 48 115 108 134 143 144 155 163 160
268 276 282 287 287 289 295 299 302 305 307 310 314 318 321 278 297 278 313 307 316 301 281 290 311 306 308 287 293 297 301 310 309 286 190 272 136 105 133 137 141 154 159 165 167
251 257 267 279 286 295 298 303 309 311 312 311 308 315 305 276 297 273 270 283 277 277 278 277 321 322 315 316 313 307 316 293 287 282 233 219 269 143 148 146 147 156 164 165 170
295 298 305 294 298 301 306 304 305 309 309 310 313 308 280 295 289 271 275 283 264 254 261 274 297 278 279 271 308 307 311 282 266 268 262 190 235 142 158 154 158 164 168 173 180
300 294 297 288 289 296 295 302 304 304 303 302 296 311 281 285 270 309 265 274 275 246 260 255 279 258 278 257 287 251 245 257 265 238 231 182 219 163 169 163 164 167 171 174 174
293 283 284 293 292 292 291 289 300 297 294 290 267 277 265 280 285 257 228 244 273 276 251 233 239 228 303 154 232 242 238 252 251 258 227 222 205 151 172 171 170 173 174 178 178
270 267 265 272 278 284 290 300 303 303 268 222 263 229 283 255 311 282 235 250 256 260 259 251 196 221 230 221 231 246 266 269 268 282 306 245 198 166 176 173 172 175 180 183 184
272 271 274 274 279 287 285 277 255 321 292 268 262 259 258 264 283 266 250 256 234 239 256 263 246 234 243 247 252 257 255 267 276 296 303 284 192 184 180 187 184 185 182 183 181
282 289 279 279 294 303 298 303 283 304 280 280 256 248 248 236 241 251 251 253 250 247 252 256 258 272 245 247 253 281 276 276 280 297 290 272 254 227 197 195 194 190 188 184 182
265 268 270 279 311 337 298 336 309 289 279 265 231 249 236 229 259 246 246 239 249 247 255 247 257 261 269 265 250 247 260 289 281 290 271 182 246 249 211 197 197 193 188 182 183
248 251 249 248 225 207 297 248 185 264 303 269 181 138 158 172 234 348 240 229 232 242 242 240 239 253 253 263 271 270 226 254 264 285 323 284 270 233 232 201 197 200 189 184 182
248 238 230 233 234 261 286 271 292 23 249 267 148 154 145 201 217 253 130 217 232 251 242 254 261 267 252 260 255 250 256 255 254 252 260 196 240 239 232 238 206 199 188 179 177
241 241 226 210 206 240 256 229 271 204 278 233 306 17 345 285 303 250 251 221 185 214 256 264 259 252 253 269 272 273 175 262 297 232 250 196 227 243 259 234 219 190 186 174 174
261 244 229 219 216 218 216 98 222 248 237 296 316 327 325 307 320 301 328 269 251 255 250 260 274 230 218 227 239 225 210 178 205 224 275 216 238 255 288 266 207 188 178 169 170
264 254 247 224 213 229 179 204 212 196 258 313 321 312 301 338 329 323 264 276 272 8 331 296 262 268 255 234 227 214 224 213 239 256 306 230 296 283 120 45 50 163 161 166 171
257 263 260 228 211 212 196 236 242 235 290 314 295 288 301 314 318 327 355 13 349 28 16 328 303 273 279 297 279 218 201 226 218 228 239 252 248 245 260 185 101 57 169 162 163
235 254 250 189 196 193 218 231 251 260 276 290 288 300 298 302 308 308 285 319 22 353 8 26 303 321 333 255 251 308 205 210 173 200 231 248 255 221 183 178 149 128 149 155 160
221 235 200 185 173 202 229 224 234 267 285 295 293 271 273 282 288 280 278 282 302 321 318 3 278 276 250 286 298 345 318 250 188 247 221 223 238 113 124 145 158 162 165 171 173
231 252 239 195 210 222 266 258 263 267 265 277 275 281 283 286 283 266 272 283 276 20 318 16 269 306 307 284 307 339 46 15 342 38 236 240 261 93 88 96 195 183 171 175 177
260 255 240 212 237 121 231 260 277 288 280 262 269 274 278 283 276 278 278 280 304 305 232 192 199 239 269 295 296 295 315 323 314 266 309 254 295 288 299 311 235 204 187 184 177
230 230 223 176 245 213 193 276 276 277 250 306 293 288 301 303 315 283 282 300 289 295 172 218 239 230 247 253 261 259 264 296 292 286 237 276 263 278 289 294 284 225 183 173 171
220 208 259 285 284 212 220 239 249 266 274 280 269 264 264 255 248 288 294 289 287 293 170 246 274 221 258 269 272 270 258 222 250 269 272 261 262 256 256 262 281 187 176 179 172
239 248 310 269 297 279 251 256 252 258 268 274 283 271 267 262 262 271 275 271 252 263 270 181 233 232 270 272 299 264 236 234 238 243 244 252 249 265 251 245 261 241 192 192 187